Location: Costa Valle Imagna
(45.8000°N, 9.5000°E)
Time: 07:56:40
(UTC+00:00)

STARLINK-1119 - Pass Details

Date: 17 February 2020
Orbit: 548 x 551 km, 53.0° (Epoch: 01 April)

Event Time Altitude Azimuth Distance (km) Brightness Sun altitude
Rises 05:52:20 0° 232° (SW) 2,715 6.8 -5.9°
Reaches altitude 10° 05:54:33 10° 231° (SW) 1,825 5.9 -5.5°
Maximum altitude 05:58:42 76° 146° (SE) 574 3.9 -4.8°
Drops below altitude 10° 06:02:52 10° 61° (ENE) 1,838 7.1 -4.1°
Sets 06:05:07 0° 60° (ENE) 2,735 8.0 -3.7°
